Regional Weather Roundup
Issued by NWS

Home | Current Version | Previous Version | Graphics & Text | Print | Product List | Glossary On
Versions: 1 2 3 4 5 6 7 8 9 10 11 12 13 14 15 16 17 18 19 20 21 22 23 24 25 26 27 28 29 30 31 32 33 34 35 36 37 38 39 40 41 42 43 44 45 46 47 48 49 50
000
ASUS43 KFSD 191310
RWRSD

WEATHER ROUNDUP FOR SOUTH DAKOTA
NATIONAL WEATHER SERVICE SIOUX FALLS SD
800 AM CDT SUN APR 19 2015

NOTE: "FAIR" INDICATES FEW OR NO CLOUDS BELOW 12,000 FEET WITH NO
SIGNIFICANT WEATHER AND/OR OBSTRUCTIONS TO VISIBILITY.


SDZ001>005-009-010-012>017-191400-
NORTHWEST AND NORTH CENTRAL SOUTH DAKOTA

CITY           SKY/WX    TMP DP  RH WIND       PRES   REMARKS
BUFFALO          N/A     35  24  64 NW24      29.99S WCI  23
FAITH            N/A     35  28  75 NW18G25   30.01S WCI  24
MOBRIDGE       MOSUNNY   42  34  73 NW17G25   29.90S
$$

SDZ012>016-024>037-041>051-057-063-072>074-191400-
SOUTHWEST AND SOUTH CENTRAL SOUTH DAKOTA

CITY           SKY/WX    TMP DP  RH WIND       PRES   REMARKS
RAPID CTY ARPT CLEAR     37  25  61 NW18      30.08R
PIERRE         SUNNY     42  35  76 NW17      29.94R
CUSTER         CLEAR     30  18  60 NW6       30.06S WCI  24
ELLSWORTH AFB  CLEAR     37  24  58 NW15G24   30.07R
PHILIP         SUNNY     38  32  79 W12       30.02R
PINE RIDGE     CLEAR     39  27  62 NW14G21   30.07R
SPEARFISH      FAIR      34  23  64 W15       30.12R WCI  24
WINNER         FAIR      45  36  70 NW17G30   29.94R
$$

SDZ004>011-016>023-039-040-191400-
NORTHEAST SOUTH DAKOTA

CITY           SKY/WX    TMP DP  RH WIND       PRES   REMARKS
ABERDEEN       CLOUDY    46  41  82 NW21G28   29.83R
WATERTOWN      CLOUDY    48  45  89 NW14      29.74R
BROOKINGS      CLOUDY    48  46  93 NW16G23   29.76R
SISSETON         N/A     48  47  96 N17       29.72R
$$

SDZ017-020-022-023-036>040-048>070-191400-
SOUTHEAST SOUTH DAKOTA

CITY           SKY/WX    TMP DP  RH WIND       PRES   REMARKS
SIOUX FALLS    CLOUDY    50  48  93 NW18G25   29.75R
HURON          CLOUDY    46  42  86 NW21G30   29.83R
CHAMBERLAIN    CLOUDY    44  38  79 NW16      29.91S
MITCHELL       CLOUDY    48  44  86 NW23G29   29.83S
YANKTON        CLOUDY    48  45  87 NW21G30   29.78S
$$

ABBREVIATIONS USED IN REMARKS
   TC - TEMPERATURE IN CELSIUS
  WCI - WIND CHILL INDEX
   HX - HEAT INDEX
  VSB - VISIBILITY



USA.gov is the U.S. government's official web portal to all federal, state and local government web resources and services.